EDT,Max TemperatureF,Mean TemperatureF,Min TemperatureF,Max Dew PointF,MeanDew PointF,Min DewpointF,Max Humidity, Mean Humidity, Min Humidity, Max Sea Level PressureIn, Mean Sea Level PressureIn, Min Sea Level PressureIn, Max VisibilityMiles, Mean VisibilityMiles, Min VisibilityMiles, Max Wind SpeedMPH, Mean Wind SpeedMPH, Max Gust SpeedMPH,PrecipitationIn, CloudCover, Events, WindDirDegrees
2013-10-1,74,63,51,56,50,45,83,61,38,29.99,29.94,29.89,10,10,10,16,11,20,0.00,0,,309
2013-10-2,75,66,56,58,54,51,86,70,54,29.99,29.92,29.89,10,10,10,21,12,28,0.00,0,,275
2013-10-3,71,62,53,51,47,41,83,59,35,30.11,30.06,30.00,10,10,10,16,8,20,0.00,0,,284
2013-10-4,65,59,53,56,52,42,100,78,56,30.11,30.08,30.06,10,9,2,18,3,26,0.36,6,Rain,360
2013-10-5,66,62,57,58,56,55,93,83,73,30.14,30.10,30.07,10,9,1,7,2,9,0.07,8,Rain,33
2013-10-6,57,54,51,56,53,51,100,97,93,30.22,30.18,30.13,10,3,0,14,7,20,0.45,8,Fog-Rain,73
2013-10-7,73,63,53,67,61,52,100,90,79,30.13,29.93,29.83,10,6,0,36,12,47,0.29,8,Fog-Rain,194
2013-10-8,62,55,48,49,40,33,89,66,42,30.39,30.19,29.95,10,10,10,22,10,27,0.00,0,,323
2013-10-9,59,51,43,43,40,33,86,69,51,30.48,30.42,30.38,10,10,10,15,7,20,0.00,0,,49
2013-10-10,57,51,45,49,46,42,100,86,72,30.36,30.28,30.19,10,10,10,10,6,15,0.00,1,,37
2013-10-11,67,58,48,54,45,37,93,68,42,30.18,30.15,30.12,10,10,10,13,7,17,0.00,4,,35
2013-10-12,55,53,50,53,50,45,100,83,66,30.40,30.30,30.16,10,7,0,16,9,22,T,6,Fog,47
2013-10-13,54,50,45,48,45,42,100,86,71,30.45,30.41,30.37,10,10,10,14,7,19,0.00,7,,54
2013-10-14,63,51,39,45,40,36,100,68,36,30.41,30.34,30.27,10,10,10,13,5,17,0.00,1,,235
2013-10-15,65,58,51,49,48,46,83,68,52,30.27,30.23,30.18,10,10,10,12,5,14,0.00,6,,52
2013-10-16,56,53,49,50,48,46,100,86,72,30.18,30.07,29.92,10,7,0,10,5,13,0.00,5,Fog,52
2013-10-17,68,59,50,58,55,49,100,78,55,29.92,29.83,29.73,10,8,0,16,10,20,0.06,5,Fog-Rain,229
2013-10-18,62,55,47,59,48,36,97,72,47,29.93,29.76,29.62,10,9,2,25,12,36,0.01,4,Rain,255
2013-10-19,62,52,41,45,39,36,82,61,39,29.98,29.90,29.76,10,10,10,15,8,20,0.02,2,,215
2013-10-20,57,49,41,50,40,28,93,64,35,30.04,29.82,29.70,10,9,5,24,11,33,0.02,3,Rain,268
2013-10-21,62,53,43,41,36,32,77,56,34,30.13,30.07,30.00,10,10,10,17,10,22,0.00,1,,242
2013-10-22,61,51,41,49,43,34,100,78,55,29.99,29.84,29.74,10,10,4,20,10,25,T,2,,240
2013-10-23,47,42,36,33,30,28,82,66,49,29.81,29.71,29.61,10,10,10,13,6,17,0.00,4,,287
2013-10-24,49,41,33,32,26,18,89,60,31,29.90,29.80,29.68,10,10,10,25,14,35,0.00,1,,265
2013-10-25,46,40,33,31,27,23,89,67,45,30.17,30.04,29.92,10,10,10,23,12,31,0.00,2,,279
2013-10-26,50,41,31,32,28,22,85,59,33,30.16,30.04,29.88,10,10,10,26,14,35,0.00,2,Rain,234
2013-10-27,50,44,37,33,30,26,82,62,42,30.08,29.92,29.82,10,10,10,23,11,30,T,5,Rain,269
2013-10-28,53,42,31,32,29,23,85,63,41,30.35,30.18,30.09,10,10,10,24,10,32,0.00,2,,280
2013-10-29,45,39,32,21,17,12,56,42,28,30.44,30.40,30.36,10,10,10,14,5,18,0.00,1,,346
2013-10-30,51,42,33,41,31,20,96,72,48,30.35,30.27,30.21,10,10,10,17,7,23,0.01,4,Rain,250
2013-10-31,60,50,39,56,49,40,100,97,93,30.24,30.09,29.81,10,4,0,24,11,35,0.14,6,Fog-Rain,210